Location: Rounton
(54.4000°N, 1.3500°W)
Time: 14:22:05
(UTC+01:00)

S-56A Canister/Altair - Pass Details

Date: 12 September 2024
Orbit: 636 x 2487 km, 38.9° (Epoch: 02 October)

Event Time Altitude Azimuth Distance (km) Brightness Sun altitude
Rises 02:47:24 0° 267° (W) 4,896 - -27.6°
Reaches altitude 10° 02:52:03 10° 248° (WSW) 4,248 - -27.2°
Maximum altitude 02:58:24 16° 215° (SW) 4,115 - -26.7°
Drops below altitude 10° 03:05:40 10° 183° (S) 4,950 - -26.1°
Sets 03:11:57 0° 166° (SSE) 6,113 - -25.6°
